STARLINK-5363, 55497

Orbit data source: Space-Track

STARLINK-5363, 55497 is a payload satellite owned by SpaceX/Seattle (US) in LEO that was launched on Thu, 02 Feb 2023 UTC via an FALCON 9 launch vehicle from the Air Force Eastern Test Range (AFETR). Payload-class satellites include a variety of spacecraft equipped with specific instruments for various scientific and technological missions. These include communications satellites like Starlink; space stations such as the ISS; scientific satellites like the Hubble; Earth observation satellites from companies like Planet Labs, Umbra, and HawkEye 360; GPS; miniature CubeSats for education and research; and military/defense satellites.

Loading next visibility...
Identifier
55497, 2023-015BA
Orbit
LEO
Country
Flag of USUS
Related business
Manufacturer
SpaceX/Seattle
Mission
Operational Commercial Communications
Bus & Motor
STARLINK, Unknown motor
Mass
305 kg wet, ~290 kg dry
Launch date (UTC)
2023-02-02 (3 years ago)
Launch vehicle
FALCON 9
Launch site
Air Force Eastern Test Range (AFETR)
Object type
Payload
Rocket body
Debris
Shape & HBR
Box + 1 Pan, 10.1 m
Radar Cross Section
13.562 m², Large (>1 m²)

Expand to show TLE details & history
Last TLE update: 10 hours ago

TLE from 10 hours ago
0 STARLINK-5363
1 55497U 23015BA  25288.60829640  .00000793  00000-0  73796-4 0  9996
2 55497  43.0042  46.9883 0001270 267.3059  92.7638 15.02535847148788
Epoch: 2025-10-15T14:35Z
TLE epoch observation values (Epoch: 2025-10-15T14:35:56.808Z)
Latitude
-0.00004°
Longitude
163.62163°
Altitude
558.901 km
Speed
7.584 km/s
True Right ascension
03h 07m 57s
True Declination
0° 00' 00"
Sunlit
Object was in full shadow at epoch
Visualization orbit readout
Latitude
Unknown
Longitude
Unknown
Altitude
Unknown
Speed
Unknown
Apparent Right ascension
Unknown
Apparent Declination
Unknown
Sunlit
N/A
Visualization observer readout
Local Sidereal Time
18:46:49
Azimuth
Unknown
Elevation
Unknown
Doppler factor
Unknown
Orbital elements
Apogee altitude
561.885 km
Perigee altitude
560.122 km
Semi-major axis
6,939.14 km
Eccentricity
0.00013
Inclination
43.0042°
RAAN
46.9883°
Arg. of periapsis
267.3059°
True anomaly
92.77834°
Mean anomaly
92.7638°
Eccentric anomaly
92.77107°
Mean motion
3.75478 °/min
Orbital period
95.88 mins
BSTAR
0.000073796
Loading maneuver chart data...
Computing Atmospheric mass density...
Loading historical data...
Loading historical data...
Loading historical data...
Loading historical data...
Loading historical data...
Loading historical data...
Loading historical data...

Documentation

Showing up to 5 results
|